Volver al catálogo

STARLINK-4774

ActivoComunicacionesVLEO
NORAD 56138·PAYLOAD·🇺🇸 United States

Lanzado Mar 29, 2023 desde Cape Canaveral Space Force Station

Loading…

Próximos Pases (próximas 24 horas)

TLE

ActualizadoSource: CelesTrak SupGP

Época: Sep 14, 2026, 13:19 UTC

1 56138C 23046AX  26257.55534722 -.00003932  00000+0 -14243-3 0  2575
2 56138  42.9995 160.5626 0001075 248.7951  67.9400 15.27572748    13

Sigue STARLINK-4774 en tiempo real con AllMySat

Download on the App Store